WetterOnline ( http://www.wetteronline.de )

Wetter aktuell Bechtsrieth

Aktuelles Wetter: Weiden (439m)

6-stündlich | Neueste Meldungen
Ortszeit Temperatur Wetter
Fr, 22.03. 1:00 3.2° C wolkig
Do, 21.03. 19:00 10.6° C wolkenlos
Do, 21.03. 13:00 13.3° C leicht bewölkt
Do, 21.03. 7:00 -2.4° C leicht bewölkt
Do, 21.03. 1:00 -0.5° C wolkig
Mi, 20.03. 19:00 6.5° C wolkenlos
Mi, 20.03. 13:00 7.9° C wolkenlos
Mi, 20.03. 7:00 -1.8° C wolkenlos
Ortszeit Temperatur Wetter
Fr, 22.03. 4:30 2.7° C wolkig
Fr, 22.03. 4:20 2.7° C wolkig
Fr, 22.03. 4:10 2.7° C wolkig
Fr, 22.03. 4:00 2.5° C leicht bewölkt
Fr, 22.03. 3:50 2.5° C leicht bewölkt
Fr, 22.03. 3:40 2.3° C wolkenlos
Fr, 22.03. 3:30 1.8° C wolkenlos
Fr, 22.03. 3:00 2.1° C fast wolkenlos
Fr, 22.03. 2:30 2.2° C leicht bewölkt
Fr, 22.03. 2:00 2.8° C leicht bewölkt
Fr, 22.03. 1:30 2.7° C wolkig
Ortszeit Relative Feuchte Sichtweite
Fr, 22.03. 1:00 79% 28 km
Do, 21.03. 19:00 43% 60 km
Do, 21.03. 13:00 26% 30 km
Do, 21.03. 7:00 89% 30 km
Do, 21.03. 1:00 79% 40 km
Mi, 20.03. 19:00 43% 55 km
Mi, 20.03. 13:00 38% 24 km
Mi, 20.03. 7:00 91% 26 km
Ortszeit Relative Feuchte Sichtweite
Fr, 22.03. 4:30 75% 25 km
Fr, 22.03. 4:20 75% -
Fr, 22.03. 4:10 75% -
Fr, 22.03. 4:00 76% 26 km
Fr, 22.03. 3:50 76% -
Fr, 22.03. 3:40 78% -
Fr, 22.03. 3:30 85% 24 km
Fr, 22.03. 3:00 84% 24 km
Fr, 22.03. 2:30 83% 25 km
Fr, 22.03. 2:00 81% 27 km
Fr, 22.03. 1:30 81% 26 km
Ortszeit Niederschlagsmenge Niederschlagsart
Fr, 22.03. 1:00 0.0 l/m2 in 6 Std. -
Do, 21.03. 19:00 0.0 l/m2 in 12 Std. -
Do, 21.03. 13:00 0.1 l/m2 in 6 Std. -
Do, 21.03. 7:00 0.0 l/m2 in 12 Std. -
Do, 21.03. 1:00 0.0 l/m2 in 6 Std. -
Mi, 20.03. 19:00 0.0 l/m2 in 12 Std. -
Mi, 20.03. 13:00 0.0 l/m2 in 6 Std. -
Mi, 20.03. 7:00 0.0 l/m2 in 12 Std. -
Ortszeit Niederschlagsmenge Niederschlagsart
Fr, 22.03. 4:30 0.0 l/m2 in 1 Std. -
Fr, 22.03. 4:20 keine Meldung -
Fr, 22.03. 4:10 keine Meldung -
Fr, 22.03. 4:00 0.0 l/m2 in 1 Std. -
Fr, 22.03. 3:50 keine Meldung -
Fr, 22.03. 3:40 keine Meldung -
Fr, 22.03. 3:30 0.0 l/m2 in 1 Std. -
Fr, 22.03. 3:00 0.0 l/m2 in 1 Std. -
Fr, 22.03. 2:30 0.0 l/m2 in 1 Std. -
Fr, 22.03. 2:00 0.0 l/m2 in 1 Std. -
Fr, 22.03. 1:30 0.0 l/m2 in 1 Std. -
Ortszeit Stärke Spitze Richtung
km/h Bft. km/h Grad Sektor
Fr, 22.03. 1:00 2 1 17 160° S
Do, 21.03. 19:00 7 2 22 90° O
Do, 21.03. 13:00 6 1 22 30° NO
Do, 21.03. 7:00 4 1 11 70° O
Do, 21.03. 1:00 2 1 6 120° SO
Mi, 20.03. 19:00 4 1 18 200° S
Mi, 20.03. 13:00 7 2 18 10° N
Mi, 20.03. 7:00 4 1 7 210° SW
Ortszeit Stärke Spitze Richtung
km/h Bft. km/h Grad Sektor
Fr, 22.03. 4:30 6 1 11 50° NO
Fr, 22.03. 4:20 6 1 - 50° NO
Fr, 22.03. 4:10 7 2 - 60° NO
Fr, 22.03. 4:00 7 2 11 60° NO
Fr, 22.03. 3:50 7 2 - 60° NO
Fr, 22.03. 3:40 7 2 - 50° NO
Fr, 22.03. 3:30 4 1 7 40° NO
Fr, 22.03. 3:00 0 0 4 - -
Fr, 22.03. 2:30 4 1 4 190° S
Fr, 22.03. 2:00 2 1 6 250° W
Fr, 22.03. 1:30 2 1 6 220° SW
Ortszeit Untergrenze Bedeckung Gattung
total tief tief mittel hoch
Fr, 22.03. 1:00 9000 m 8/8 0/8 - - -
Do, 21.03. 19:00 - 0/8 0/8 - - -
Do, 21.03. 13:00 12000 m 3/8 0/8 - - -
Do, 21.03. 7:00 10500 m 3/8 0/8 - - -
Do, 21.03. 1:00 7500 m 8/8 0/8 - - -
Mi, 20.03. 19:00 - 0/8 0/8 - - -
Mi, 20.03. 13:00 - 0/8 0/8 - - -
Mi, 20.03. 7:00 - 0/8 0/8 - - -
Ortszeit Bedeckungsgrad in Achtel und Wolkenuntergrenze
Fr, 22.03. 4:30 2(9000m) 7(10500m)
Fr, 22.03. 4:20 2(9000m) 7(10500m)
Fr, 22.03. 4:10 2(9000m) 7(10500m)
Fr, 22.03. 4:00 3(10500m) 5(10500m)
Fr, 22.03. 3:50 3(10500m)
Fr, 22.03. 3:40 keine Wolken
Fr, 22.03. 3:30 keine Wolken
Fr, 22.03. 3:00 1(9000m)
Fr, 22.03. 2:30 3(10500m)
Fr, 22.03. 2:00 3(10500m)
Fr, 22.03. 1:30 7(9000m) 8(9000m)
Ortszeit Luftdruck NN (hPa) Tendenz (hPa in 3 Std.)
Fr, 22.03. 1:00 1034 0,0
Do, 21.03. 19:00 1033 + 0,2
Do, 21.03. 13:00 1034 - 1,3
Do, 21.03. 7:00 1038 + 0,7
Do, 21.03. 1:00 1038 + 0,5
Mi, 20.03. 19:00 1035 + 0,3
Mi, 20.03. 13:00 1035 + 0,1
Mi, 20.03. 7:00 1036 + 1,0
Ortszeit Luftdruck NN (hPa) Tendenz (hPa in 3 Std.)
Fr, 22.03. 4:30 1033 - 0,9
Fr, 22.03. 4:20 1033 keine Meldung
Fr, 22.03. 4:10 1033 keine Meldung
Fr, 22.03. 4:00 1034 - 0,9
Fr, 22.03. 3:50 1034 keine Meldung
Fr, 22.03. 3:40 1034 keine Meldung
Fr, 22.03. 3:30 1034 - 0,7
Fr, 22.03. 3:00 1034 - 0,7
Fr, 22.03. 2:30 1034 - 0,5
Fr, 22.03. 2:00 1034 - 0,3
Fr, 22.03. 1:30 1034 - 0,1
Ortszeit Schneehöhe (cm)
Fr, 22.03. 1:00 0
Do, 21.03. 19:00 0
Do, 21.03. 13:00 0
Do, 21.03. 7:00 0
Do, 21.03. 1:00 0
Mi, 20.03. 19:00 0
Mi, 20.03. 13:00 0
Mi, 20.03. 7:00 0
Ortszeit Schneehöhe (cm)
Fr, 22.03. 4:30 0
Fr, 22.03. 4:20 0
Fr, 22.03. 4:10 0
Fr, 22.03. 4:00 0
Fr, 22.03. 3:50 0
Fr, 22.03. 3:40 0
Fr, 22.03. 3:30 0
Fr, 22.03. 3:00 0
Fr, 22.03. 2:30 0
Fr, 22.03. 2:00 0
Fr, 22.03. 1:30 0
Link zu dieser Seite / Seite empfehlen

Das Wetter in ...